STARLINK-2615 (48678 NORAD) Tracking and Keplerian Element Data

This shows tracking and keplerian element data for the satellite.

Feedback or suggestion? Click here.




ElementValue
Catalog48678
NameSTARLINK-2615
Epoch Orbit181
Epoch Day170.58334491
Epoch Year2021
RAAN306.2576
Inclination53.0479
Eccentricity0.0001394
Argument of Perigee51.1224
Mean Anonmoly75.1291
Mean Motion15.73225986
Decay Rate-8.303E-05
L11 48678U 21044AS 21170.58334491 -.00008303 00000-0 -54722-4 0 9992
L22 48678 53.0479 306.2576 0001394 51.1224 75.1291 15.73225986 1817

Live tracking and technical data element details for STARLINK-2615 (NORAD 48678). STARLINK-2615 can be tracked NOW for your location showing map with azimuth and elevation plus other details from your city location.

Track the satellite on the map from your city or location and see movement details for azimuth, elevation, latitude, longitude, range, height, and movement on the map or in text.







IsCatalogInMostPopularTable: catalog: 48678, numindb: 2
Update: records affected: 1



GetName: 48678 STARLINK-2615

Hit Count: updated at: Mon, 21 Jun 2021 03:20:28 GMT